This demonstration page uses our WeatherBlox Daily Observations layout. Learn more.

Left ArrowRight Arrow

39.01783, -85.05884

Hourly Observations for March 24, 2022

Temp ( °F °C ) Dew Point ( °F °C ) Humidity (%) Winds ( mph kmh ) Pressure ( in mb ) Visibility ( mi km ) Precip ( " mm )
12:52 am 00:52 Cloudy 49 9.4 40 4.4 71 71 SSW 10 17 29.75 1008 10 16 0.00 0.00
1:52 am 01:52 Mostly Cloudy 48 8.9 40 4.4 74 74 SW 13 20 29.76 1008 10 16 0.00 0.00
2:52 am 02:52 Mostly Cloudy with Light Rain 47 8.3 42 5.6 83 83 SW 14 22 29.77 1008 8 13 0.00 0.00
3:52 am 03:52 Cloudy 45 7.2 41 5 86 86 SW 12 19 29.78 1008 10 16 0.00 0.00
4:09 am 04:09 Mostly Cloudy 46 7.8 40 4.4 79 79 SW 15 24 29.82 1010 10 16 0.00 0.00
4:52 am 04:52 Mostly Cloudy 45 7.2 40 4.4 83 83 SW 12 19 29.78 1009 10 16 0.00 0.00
5:52 am 05:52 Cloudy 45 7.2 40 4.4 83 83 SW 14 22 29.79 1009 10 16 0.00 0.00
6:52 am 06:52 Cloudy 45 7.2 38 3.3 77 77 SW 10 17 29.81 1009 10 16 0.00 0.00
7:52 am 07:52 Cloudy 45 7.2 38 3.3 77 77 SSW 13 20 29.82 1010 10 16 0.00 0.00
8:52 am 08:52 Cloudy 46 7.8 36 2.2 68 68 SSW 8 13 29.83 1010 10 16 0.00 0.00
9:52 am 09:52 Cloudy 48 8.9 36 2.2 63 63 SW 17 28 29.84 1011 10 16 0.00 0.00
10:52 am 10:52 Mostly Cloudy 48 8.9 35 1.7 61 61 SW 12 19 29.84 1011 10 16 0.00 0.00
11:52 am 11:52 Mostly Cloudy 50 10 35 1.7 57 57 SW 15 24 29.82 1010 10 16 0.00 0.00
12:52 pm 12:52 Mostly Cloudy 52 11.1 36 2.2 55 55 SSW 12 19 29.80 1009 10 16 0.00 0.00
1:52 pm 13:52 Mostly Cloudy 53 11.7 32 0 45 45 SW 21 33 29.79 1009 10 16 0.00 0.00
2:52 pm 14:52 Cloudy 53 11.7 32 0 45 45 WSW 13 20 29.77 1008 10 16 0.00 0.00
3:52 pm 15:52 Mostly Cloudy 54 12.2 30 -1.1 40 40 SSW 15 24 29.75 1008 10 16 0.00 0.00
4:52 pm 16:52 Cloudy 53 11.7 31 -0.6 43 43 WSW 14 22 29.77 1008 10 16 0.00 0.00
5:52 pm 17:52 Cloudy with Light Rain 51 10.6 33 0.6 50 50 SSW 13 20 29.77 1008 10 16 0.00 0.00
6:52 pm 18:52 Mostly Cloudy 50 10 32 0 50 50 WSW 13 20 29.80 1009 10 16 0.00 0.00
7:52 pm 19:52 Mostly Cloudy 49 9.4 31 -0.6 50 50 W 13 20 29.82 1010 10 16 0.00 0.00
8:52 pm 20:52 Mostly Cloudy 46 7.8 32 0 58 58 W 12 19 29.83 1010 10 16 0.00 0.00
9:52 pm 21:52 Mostly Clear 45 7.2 32 0 61 61 W 9 15 29.85 1011 10 16 0.00 0.00
10:52 pm 22:52 Cloudy 45 7.2 33 0.6 63 63 WSW 7 11 29.85 1011 10 16 0.00 0.00
11:52 pm 23:52 Partly Cloudy 43 6.1 33 0.6 68 68 WSW 7 11 29.84 1010 10 16 0.00 0.00

Powered by AerisWeather